Location: Arbon
(43.0005°N, 0.7472°E)
Time: 03:24:53
(UTC+00:00)

IRAS Rocket - Pass Details

Date: 07 August 2020
Orbit: 847 x 878 km, 100.1° (Epoch: 27 September)

Event Time Altitude Azimuth Distance (km) Brightness Sun altitude
Exits shadow 01:57:06 62° 246° (WSW) 966 4.2 -25.1°
Maximum altitude 01:57:18 62° 257° (WSW) 963 4.2 -25.1°
Drops below altitude 10° 02:02:50 10° 338° (NNW) 2,520 7.1 -24.6°
Sets 02:05:16 0° 342° (NNW) 3,466 7.9 -24.4°
